Zurück zum Katalog

STARLINK-31546

AktivKommunikationVLEO
NORAD 59470·PAYLOAD·🇺🇸 United States

Gestartet Apr 10, 2024 von Cape Canaveral Space Force Station

Loading…

Nächste Überflüge (nächste 24 Stunden)

TLE

AktuellSource: CelesTrak SupGP

Epoche: Sep 15, 2026, 02:47 UTC

1 59470C 24068R   26258.11645833 -.00019680  00000+0 -71260-3 0  2581
2 59470  43.0037  41.1219 0001553 269.0635 134.6870 15.27596977    15

Verfolge STARLINK-31546 in Echtzeit mit AllMySat

Download on the App Store